Regional Weather Roundup
Issued by NWS

Home | Current Version | Previous Version | Text Only | Print | Product List | Glossary Off
Versions: 1 2 3 4 5 6 7 8 9 10 11 12 13 14 15 16 17 18 19 20 21 22 23 24 25 26 27 28 29 30 31 32 33 34 35 36 37 38 39 40 41 42 43 44 45 46 47 48 49 50

000
ASUS43 KDTX 292101
RWRMI
MICHIGAN HOURLY REGIONAL WEATHER ROUNDUP
NATIONAL WEATHER SERVICE DETROIT/PONTIAC MI
500 PM EDT WED OCT 29 2014

NOTE: "FAIR" INDICATES FEW OR NO CLOUDS BELOW 12,000 FEET WITH NO
SIGNIFICANT WEATHER AND/OR OBSTRUCTION TO VISIBILITY.

MIZ047>049-052>055-059>063-066>070-074>076-081>083-292200-
SOUTHEAST LOWER MICHIGAN

CITY           SKY/WX    TMP DP  RH WIND       PRES   REMARKS
ADRIAN         CLOUDY    45  39  79 W8        30.03R
ALMA           MOSUNNY   49  36  60 W13       29.99R
ANN ARBOR      CLOUDY    47  35  63 W9        30.00R
BAD AXE        PTSUNNY   47  37  69 W10       29.95R
CARO           PTSUNNY   47  36  65 W6        29.96R
DETROIT CITY   CLOUDY    50  34  54 W10       29.99R
DETROIT        CLOUDY    47  37  68 W10       30.01R
FLINT          CLOUDY    48  36  63 W15       29.99R
GROSSE ILE     LGT RAIN  48  37  66 NW10      29.99R
HILLSDALE      CLOUDY    46  39  77 W7G16     30.02R
HOWELL         CLOUDY    45  36  70 W9        30.00R

CITY           SKY/WX    TMP DP  RH WIND       PRES   REMARKS
JACKSON        CLOUDY    45  36  70 W12       30.02R
LAMBERTVILLE   CLOUDY    46  37  71 W8        30.03R
LANSING        PTSUNNY   45  34  65 W9        30.02R
LAPEER         CLOUDY    46  35  63 NW6       29.98R
MASON          PTSUNNY   45  36  70 W9        30.01R
MONROE         CLOUDY    48  37  66 NW14G21   30.00R
MT. CLEMENS    PTSUNNY   47  36  66 W12       29.95R
PONTIAC        PTSUNNY   46  34  62 W17       29.98R
PORT HOPE        N/A     48  35  60 W9G18     29.92R
PORT HURON     CLOUDY    46  37  71 W5        29.97R
TRI CITIES     PTSUNNY   50  35  56 W12       29.98R
TROY           CLOUDY    48  34  57 W9        30.00R
SAGINAW HB     CLOUDY    50  34  53 W14       29.97R
$$
MIZ043>046-050>051-056>058-064>065-071>073-077>080-292200-
SOUTHWEST LOWER MICHIGAN

CITY           SKY/WX    TMP DP  RH WIND       PRES   REMARKS
BATTLE CREEK   CLOUDY    44  38  79 NW12      30.05R
BENTON HARBOR  CLOUDY    46  33  60 W10       30.07R
BIG RAPIDS     LGT RAIN  43  41  93 NW7       30.00R
COLDWATER      CLOUDY    45  40  85 W8        30.04S
FREMONT        CLOUDY    46  35  67 NW12      30.03R
HOLLAND        CLOUDY    48  35  60 NW9       30.05R
GRAND RAPIDS   PTSUNNY   47  38  71 W13       30.03R
IONIA          CLOUDY    47  35  63 W9        30.01R
KALAMAZOO      CLOUDY    45  35  68 NW10      30.05R
LUDINGTON      LGT RAIN  43  38  80 N6        30.05R
MARSHALL       CLOUDY    45  35  67 W13       30.03R
MOUNT PLEASANT CLOUDY    49  35  57 W9        29.98R
MUSKEGON       PTSUNNY   47  35  63 NW14G22   30.05R
SOUTH HAVEN    CLOUDY    47  36  65 NW10      30.06R
$$
MIZ016>042-292200-
NORTHERN LOWER MICHIGAN

CITY           SKY/WX    TMP DP  RH WIND       PRES   REMARKS
ALPENA         PTSUNNY   46  33  60 W13G21    29.93R
BEAVER ISLAND  CLOUDY    45  36  70 NW9G20    30.00R
BELLAIRE       CLOUDY    46  35  66 NW8       30.00R
CADILLAC       LGT RAIN  41  37  87 NW12G20   29.99R
CHARLEVOIX     CLOUDY    44  36  73 NW10G17   30.02R
FRANKFORT      LGT RAIN  44  38  80 N5        30.03R
GAYLORD        LGT RAIN  40  36  86 NW6       29.96R FOG
GRAYLING       CLOUDY    44  37  75 NW13      29.98R
HARBOR SPRINGS DRIZZLE   43  36  75 NW8G18    29.98R
HOUGHTON LAKE  MOSUNNY   44  37  76 NW14      29.98R
MANISTEE       PTSUNNY   45  34  65 NW10      30.05R
OSCODA         PTSUNNY   49  37  61 W13       29.92R
PELLSTON       CLOUDY    44  35  70 NW16      29.98R
TRAVERSE CITY  CLOUDY    46  36  68 NW16      30.01R
$$
MIZ007>008-015-292200-
EASTERN UPPER MICHIGAN

CITY           SKY/WX    TMP DP  RH WIND       PRES   REMARKS
KINROSS        PTSUNNY   39  37  93 NW15G23   29.94R WCI  31
MACKINAC ISLAN PTSUNNY   44  35  69 NW10G18   29.96R
NEWBERRY       CLOUDY    39  36  86 NW8G17    29.99R WCI  34
S. S. MARIE    LGT RAIN  41  33  73 W16G22    29.94R
MUNISING         N/A     44  35  70 N15       30.02R
$$
MIZ004>006-011>014-085-292200-
CENTRAL UPPER MICHIGAN

CITY           SKY/WX    TMP DP  RH WIND       PRES   REMARKS
MANISTIQUE     LGT RAIN  40  37  87 NW9       30.01R WCI  35
ESCANABA       CLOUDY    48  34  57 W14       30.01S
MENOMINEE      CLOUDY    48  32  53 NW12      30.02S
SAWYER-GWINN   CLOUDY    43  32  65 NW10G16   30.01R
$$
MIZ001>003-009>011-084-292200-
WESTERN UPPER MICHIGAN

CITY           SKY/WX    TMP DP  RH WIND       PRES   REMARKS
IRON MOUNTAIN  MOSUNNY   47  32  56 N9        30.01R
HOUGHTON       CLOUDY    40  29  64 NW12      30.02R WCI  33
COPPER HARBOR    N/A     42  34  73 N15       30.02R
IRONWOOD       CLOUDY    41  36  81 W7        30.04S
$$

ABBREVIATIONS USED IN REMARKS
   TC - TEMPERATURE IN CELSIUS
  WCI - WIND CHILL INDEX
   HX - HEAT INDEX
  VSB - VISIBILITY




USA.gov is the U.S. government's official web portal to all federal, state and local government web resources and services.